Total_Precipitation_Accumulation
0.69 0.60 0.76 0.81 0.73 0.81 1.09 0.98 0.88 0.56 0.48 0.51 0.51 0.50 0.46 0.45 0.43 0.42 0.47 0.50 0.50 0.51 0.53 0.53 0.56 0.55 0.56 0.58 0.67 0.76 0.84 0.86 0.85 0.90 0.94 0.95 0.95 0.95 0.92 0.94 0.96 0.98 0.95 0.91
0.66 0.55 0.65 0.70 0.61 0.61 0.64 0.61 0.60 0.47 0.53 0.47 0.45 0.42 0.40 0.40 0.39 0.39 0.43 0.46 0.45 0.44 0.44 0.46 0.51 0.55 0.54 0.55 0.62 0.68 0.76 0.82 0.80 0.77 0.80 0.89 0.97 0.99 1.00 0.97 0.98 1.02 1.05 1.03
0.78 0.54 0.68 0.82 0.69 0.58 0.56 0.55 0.53 0.62 0.60 0.43 0.42 0.41 0.44 0.42 0.39 0.40 0.41 0.41 0.41 0.40 0.39 0.43 0.48 0.51 0.49 0.53 0.61 0.64 0.72 0.80 0.81 0.79 0.81 0.84 0.93 1.02 1.06 1.07 1.07 1.13 1.20 1.23
0.90 0.72 0.95 0.80 0.47 0.38 0.40 0.46 0.47 0.50 0.46 0.41 0.47 0.46 0.40 0.37 0.36 0.37 0.37 0.37 0.35 0.35 0.35 0.35 0.39 0.43 0.46 0.48 0.54 0.58 0.63 0.71 0.77 0.81 0.90 0.96 1.01 1.05 1.08 1.12 1.18 1.27 1.35 1.37
0.93 0.78 0.62 0.42 0.31 0.37 0.41 0.48 0.40 0.35 0.32 0.30 0.33 0.36 0.36 0.31 0.29 0.32 0.36 0.39 0.39 0.38 0.39 0.36 0.34 0.38 0.43 0.48 0.54 0.58 0.62 0.70 0.77 0.82 0.88 0.97 1.09 1.14 1.15 1.18 1.24 1.26 1.25 1.18
0.93 0.84 0.58 0.44 0.26 0.25 0.35 0.54 0.33 0.30 0.28 0.26 0.25 0.33 0.38 0.33 0.29 0.26 0.27 0.34 0.38 0.37 0.38 0.39 0.40 0.42 0.47 0.53 0.61 0.70 0.76 0.82 0.90 0.97 0.99 0.98 1.04 1.10 1.09 1.03 1.01 0.93 0.85 0.78
0.85 0.82 0.54 0.42 0.25 0.20 0.49 0.64 0.33 0.31 0.31 0.27 0.31 0.35 0.29 0.24 0.25 0.27 0.27 0.31 0.37 0.40 0.43 0.45 0.50 0.55 0.63 0.68 0.76 0.83 0.88 0.89 0.98 1.02 1.03 0.98 0.89 0.80 0.73 0.68 0.65 0.63 0.59 0.54
0.64 0.83 0.63 0.32 0.27 0.52 0.66 0.39 0.29 0.27 0.27 0.27 0.26 0.21 0.17 0.15 0.17 0.19 0.24 0.30 0.38 0.44 0.47 0.50 0.56 0.61 0.67 0.74 0.77 0.76 0.79 0.78 0.78 0.74 0.66 0.63 0.63 0.58 0.55 0.53 0.50 0.50 0.52 0.54
0.65 0.75 0.60 0.41 0.46 0.49 0.41 0.34 0.27 0.27 0.26 0.26 0.22 0.19 0.17 0.16 0.15 0.15 0.18 0.23 0.28 0.35 0.38 0.40 0.43 0.49 0.56 0.56 0.53 0.50 0.50 0.49 0.49 0.47 0.45 0.45 0.48 0.51 0.51 0.51 0.52 0.51 0.50 0.52
0.47 0.44 0.34 0.30 0.26 0.24 0.25 0.30 0.27 0.25 0.26 0.25 0.25 0.23 0.20 0.18 0.18 0.17 0.17 0.20 0.25 0.27 0.30 0.32 0.32 0.38 0.45 0.43 0.39 0.38 0.40 0.40 0.41 0.43 0.43 0.44 0.48 0.50 0.52 0.53 0.52 0.53 0.53 0.52
0.38 0.32 0.26 0.23 0.21 0.23 0.21 0.20 0.20 0.20 0.22 0.25 0.26 0.25 0.24 0.23 0.23 0.23 0.22 0.24 0.27 0.32 0.33 0.33 0.32 0.33 0.36 0.36 0.36 0.38 0.39 0.40 0.40 0.42 0.45 0.46 0.49 0.53 0.57 0.58 0.60 0.62 0.57 0.54
0.44 0.36 0.39 0.33 0.27 0.24 0.23 0.24 0.24 0.23 0.22 0.23 0.26 0.30 0.27 0.27 0.27 0.27 0.28 0.27 0.29 0.34 0.37 0.38 0.37 0.38 0.37 0.38 0.39 0.41 0.43 0.44 0.45 0.47 0.49 0.53 0.56 0.56 0.63 0.66 0.70 0.69 0.63 0.59
0.40 0.31 0.29 0.26 0.23 0.24 0.27 0.29 0.29 0.28 0.28 0.26 0.25 0.26 0.27 0.27 0.27 0.27 0.27 0.28 0.32 0.36 0.39 0.41 0.41 0.42 0.43 0.43 0.42 0.44 0.46 0.49 0.48 0.48 0.49 0.54 0.60 0.61 0.62 0.65 0.68 0.70 0.68 0.65
0.26 0.24 0.26 0.26 0.28 0.26 0.25 0.26 0.26 0.25 0.26 0.26 0.25 0.22 0.23 0.25 0.26 0.27 0.31 0.34 0.36 0.36 0.38 0.39 0.39 0.41 0.45 0.45 0.44 0.45 0.46 0.51 0.54 0.52 0.52 0.55 0.60 0.65 0.64 0.64 0.63 0.61 0.62 0.66
0.25 0.28 0.34 0.30 0.26 0.24 0.24 0.22 0.22 0.24 0.23 0.24 0.24 0.23 0.23 0.25 0.28 0.31 0.32 0.33 0.33 0.34 0.36 0.37 0.37 0.40 0.41 0.44 0.45 0.45 0.45 0.49 0.55 0.58 0.58 0.58 0.60 0.64 0.64 0.63 0.62 0.60 0.58 0.63
0.23 0.20 0.20 0.21 0.22 0.21 0.20 0.21 0.22 0.23 0.22 0.22 0.22 0.24 0.26 0.27 0.28 0.28 0.29 0.30 0.33 0.38 0.40 0.39 0.39 0.40 0.39 0.41 0.43 0.44 0.46 0.55 0.59 0.60 0.60 0.58 0.57 0.58 0.58 0.59 0.59 0.57 0.56 0.57
0.20 0.20 0.19 0.19 0.19 0.20 0.22 0.25 0.27 0.27 0.25 0.25 0.26 0.26 0.25 0.24 0.24 0.26 0.28 0.31 0.34 0.39 0.41 0.41 0.41 0.39 0.40 0.41 0.42 0.43 0.45 0.51 0.59 0.58 0.56 0.56 0.57 0.57 0.57 0.57 0.56 0.53 0.52 0.57
0.23 0.24 0.24 0.25 0.25 0.25 0.26 0.26 0.26 0.26 0.27 0.27 0.26 0.25 0.26 0.26 0.28 0.28 0.30 0.29 0.28 0.30 0.35 0.39 0.42 0.42 0.43 0.44 0.45 0.46 0.48 0.51 0.53 0.54 0.54 0.54 0.55 0.55 0.56 0.55 0.53 0.51 0.51 0.56
0.20 0.22 0.22 0.24 0.26 0.29 0.30 0.31 0.32 0.31 0.30 0.29 0.28 0.28 0.28 0.29 0.30 0.30 0.28 0.26 0.26 0.29 0.34 0.36 0.40 0.39 0.41 0.45 0.49 0.49 0.50 0.51 0.52 0.52 0.51 0.53 0.53 0.49 0.50 0.50 0.49 0.49 0.50 0.51
0.21 0.23 0.23 0.25 0.27 0.30 0.31 0.31 0.31 0.30 0.30 0.29 0.29 0.28 0.27 0.29 0.30 0.30 0.28 0.29 0.34 0.39 0.40 0.39 0.36 0.35 0.37 0.40 0.47 0.48 0.47 0.48 0.49 0.50 0.49 0.50 0.50 0.48 0.47 0.47 0.47 0.47 0.47 0.48
0.21 0.22 0.23 0.25 0.27 0.29 0.31 0.31 0.29 0.31 0.30 0.28 0.29 0.30 0.30 0.29 0.28 0.27 0.26 0.29 0.34 0.33 0.33 0.33 0.32 0.34 0.37 0.41 0.43 0.43 0.44 0.45 0.47 0.49 0.50 0.51 0.51 0.49 0.48 0.47 0.47 0.47 0.47 0.48
0.23 0.23 0.23 0.22 0.22 0.24 0.25 0.25 0.25 0.26 0.26 0.27 0.27 0.27 0.27 0.27 0.25 0.24 0.25 0.30 0.33 0.32 0.30 0.30 0.32 0.38 0.44 0.45 0.41 0.39 0.41 0.44 0.46 0.48 0.51 0.52 0.53 0.51 0.49 0.48 0.48 0.46 0.45 0.46
0.24 0.24 0.25 0.25 0.25 0.24 0.23 0.23 0.24 0.25 0.25 0.26 0.27 0.27 0.27 0.26 0.24 0.24 0.27 0.27 0.27 0.28 0.28 0.31 0.35 0.40 0.43 0.41 0.38 0.37 0.39 0.41 0.44 0.46 0.49 0.51 0.52 0.52 0.51 0.49 0.47 0.44 0.43 0.43
0.22 0.23 0.23 0.22 0.19 0.17 0.19 0.21 0.23 0.24 0.24 0.24 0.25 0.25 0.24 0.23 0.20 0.20 0.24 0.25 0.24 0.24 0.25 0.27 0.30 0.32 0.33 0.32 0.31 0.33 0.35 0.37 0.39 0.41 0.42 0.43 0.44 0.45 0.45 0.45 0.44 0.42 0.41 0.41
0.17 0.18 0.18 0.17 0.17 0.16 0.17 0.16 0.16 0.18 0.18 0.18 0.17 0.17 0.18 0.19 0.22 0.20 0.19 0.18 0.19 0.21 0.21 0.22 0.24 0.25 0.25 0.26 0.28 0.31 0.33 0.34 0.37 0.40 0.39 0.38 0.38 0.40 0.40 0.39 0.40 0.40 0.38 0.38
0.12 0.12 0.11 0.12 0.13 0.14 0.14 0.14 0.14 0.14 0.14 0.13 0.13 0.14 0.14 0.14 0.15 0.15 0.15 0.16 0.17 0.19 0.19 0.19 0.19 0.21 0.22 0.23 0.25 0.28 0.29 0.30 0.32 0.33 0.33 0.34 0.34 0.34 0.35 0.35 0.35 0.36 0.36 0.35
0.09 0.08 0.08 0.08 0.08 0.09 0.10 0.11 0.13 0.13 0.14 0.16 0.17 0.15 0.14 0.13 0.13 0.13 0.14 0.15 0.16 0.17 0.17 0.18 0.20 0.22 0.23 0.24 0.25 0.26 0.27 0.28 0.29 0.31 0.33 0.33 0.34 0.34 0.33 0.33 0.34 0.33 0.33 0.33